Location: Fort Worth, Tx
(32.7431°N, 97.3695°W)
Time: 11:16:30
(UTC-04:00)

Courier 1B - Pass Details

Date: 27 February 2024
Orbit: 962 x 1208 km, 28.3° (Epoch: 24 April)

Event Time Altitude Azimuth Distance (km) Brightness Sun altitude
Exits shadow 04:45:26 16° 127° (SE) 2,355 9.7 -41.3°
Drops below altitude 10° 04:46:40 10° 123° (ESE) 2,763 10.2 -41.0°
Sets 04:49:31 0° 117° (ESE) 3,746 11.0 -40.5°
